Regional Weather Roundup
Issued by NWS Kansas City/Pleasant Hill, MO

Home | Current Version | Previous Version | Graphics & Text | Print | Product List | Glossary Off
Versions: 1 2 3 4 5 6 7 8 9 10 11 12 13 14 15 16 17 18 19 20 21 22 23 24 25 26 27 28 29 30 31 32 33 34 35 36 37 38 39 40 41 42 43 44 45 46 47 48 49 50

000
ASUS43 KEAX 030810
RWREAX

WEATHER ROUNDUP FOR EASTERN KANSAS AND NORTHWEST MISSOURI
NATIONAL WEATHER SERVICE KANSAS CITY/PLEASANT HILL MO
300 AM CDT THU SEP 03 2015

KSZ040-057-103>105-MOZ028-029-037-043-030900-
...KANSAS CITY METROPOLITAN AREA...

CITY           SKY/WX    TMP DP  RH WIND       PRES   REMARKS
K.C. INTL      MOCLDY    75  68  78 S10       29.93F
K.C. DOWNTOWN  PTCLDY    77  68  73 S7        29.92F
LEES SUMMIT    CLEAR     75  67  76 S8        29.95F
OLATHE - IXD   PTCLDY    73  68  84 S9        29.95S
OLATHE - OJC   PTCLDY    71  68  90 S6        29.94F
LAWRENCE       PTCLDY    75  68  78 S8        29.92F

$$

MOZ001>008-011>017-020>025-030>033-038>040-044>046-053-054-030900-
...NORTHERN AND CENTRAL MISSOURI...

CITY           SKY/WX    TMP DP  RH WIND       PRES   REMARKS
ST. JOSEPH     PTCLDY    73  69  87 S6        29.91F
MOSBY          SUNNY     72  68  88 CALM      29.93F
WARRENSBURG    PTCLDY    72  68  88 SE7       29.95S
WHITEMAN AFB   PTCLDY    73  68  84 S6        29.95F
CLINTON        CLEAR     72  70  94 S5        29.97F
SEDALIA        PTCLDY    72  68  87 S6        29.98F
WARSAW         NOT AVBL
CHILLICOTHE      N/A     75  69  81 CALM      29.95F
KIRKSVILLE     PTCLDY    73  67  81 S6        29.96F

$$

MOZ041-047>049-056>058-063>065-088>090-097-030900-
...EASTERN AND SOUTHERN MISSOURI...

CITY           SKY/WX    TMP DP  RH WIND       PRES   REMARKS
ST. LOUIS INTL CLEAR     79  69  71 SW5       29.99S
SPIRIT OF STL  CLEAR     70  69  97 CALM      29.98R FOG
COLUMBIA       MOCLDY    71  68  90 S6        29.99S
JEFFERSON CITY PTCLDY    69  66  90 SE3       29.98S
ROLLA          CLEAR     70  67  90 S7        30.00S
OSAGE BEACH    CLEAR     70  64  83 CALM      29.99F
SPRINGFIELD    CLEAR     71  65  81 S8        30.00F
BRANSON        CLEAR     68  66  94 CALM      30.03S
JOPLIN         CLEAR     72  67  84 S8        29.98S
WEST PLAINS    CLEAR     69  65  86 CALM      30.04S

$$

IAZ060-094-KSZ022-034>040-054-083-096-NEZ052-066-093-030900-
...KANSAS...SOUTHEAST NEBRASKA AND IOWA...

CITY           SKY/WX    TMP DP  RH WIND       PRES   REMARKS
TOPEKA         CLEAR     76  68  76 S10       29.91F
MANHATTAN      MOCLDY    77  66  68 S8        29.88F
EMPORIA        CLEAR     72  67  84 S14       29.92F
CHANUTE        CLEAR     72  68  87 S8        29.95F
WICHITA        PTCLDY    75  63  66 S10       29.92S
OMAHA          CLEAR     77  70  79 S13       29.85F
LINCOLN        CLEAR     75  67  76 S9        29.84F
FALLS CITY     MOCLDY    74  69  85 S8        29.88F
LAMONI         MOCLDY    72  69  90 S7        29.93F
DES MOINES     PTCLDY    75  68  78 S7        29.90S

$$



USA.gov is the U.S. government's official web portal to all federal, state and local government web resources and services.